Dayton Wright, OH

8:15 PM EST on November 20, 2017 (GMT -0500)
Dayton-Wright Brothers

Weather History for KMGY - December, 2013

Change the Weather History Date:

Friday, December 20, 2013

  Actual Average (KFFO) Record (KFFO)
Temperature  
Mean Temperature 52 °F -  
Max Temperature 59 °F 35 °F 59 °F (2013)
Min Temperature 46 °F 20 °F 1 °F (2004)
Degree Days  
Heating Degree Days 12    
Growing Degree Days 2 (Base 50)    
Moisture  
Dew Point 47 °F    
Average Humidity 81    
Maximum Humidity 100    
Minimum Humidity 59    
Precipitation  
Precipitation 0.01 in - - ()
Sea Level Pressure  
Sea Level Pressure 29.87 in    
Wind  
Wind Speed 12 mph (SSW)    
Max Wind Speed 15 mph    
Max Gust Speed 28 mph    
Visibility 8 miles    
Events Rain    
Averages and records for this station are not official NWS values.
T = Trace of Precipitation, MM = Missing Value Source: NWS Daily Summary

Daily Weather History Graph

Daily Weather History Graph

Search for Another Location

Airport or City:

Trip Planner

Search our weather history database for the weather conditions in past years. The results will help you decide how hot, cold, wet, or windy it might be!

Date:

Astronomy

Dec. 20, 2013 Rise Set
Actual Time 7:53 AM EST 5:15 PM EST
Civil Twilight 7:23 AM EST 5:46 PM EST
Nautical Twilight 6:49 AM EST 6:20 PM EST
Astronomical Twilight 6:16 AM EST 6:52 PM EST
Moon 8:35 PM EST (12/20) 9:47 AM EST (12/20)
Length of Visible Light 10h 22m
Length of Day
9h 22m
Waning Gibbous, 90% of the Moon is Illuminated
Dec 20
Waning Gibbous
Dec 25
Last Quarter
Jan 1
New
Jan 7
First Quarter
Jan 15
Full

Hourly Weather History & Observations

Time (EST) Temp. Dew Point Humidity Pressure Visibility Wind Dir Wind Speed Gust Speed Precip Events Conditions
12:53 AM 46.9 °F 37.0 °F 68% 29.95 in 10.0 mi South 8.1 mph - N/A   Overcast
1:53 AM 48.0 °F 37.0 °F 66% 29.93 in 10.0 mi South 9.2 mph - N/A   Overcast
2:53 AM 50.0 °F 37.0 °F 61% 29.93 in 10.0 mi SSW 9.2 mph - N/A   Overcast
3:53 AM 51.1 °F 37.0 °F 59% 29.92 in 10.0 mi SSW 13.8 mph - N/A   Overcast
4:53 AM 51.1 °F 37.9 °F 61% 29.92 in 10.0 mi SSW 11.5 mph - N/A   Overcast
5:53 AM 51.1 °F 39.0 °F 63% 29.90 in 10.0 mi SSW 11.5 mph - N/A   Overcast
6:53 AM 52.0 °F 39.9 °F 63% 29.89 in 10.0 mi SSW 12.7 mph 21.9 mph 0.00 in   Overcast
7:53 AM 52.0 °F 39.0 °F 61% 29.90 in 10.0 mi SSW 11.5 mph 20.7 mph N/A   Overcast
8:04 AM 51.8 °F 39.2 °F 62% 29.90 in 10.0 mi SSW 12.7 mph 27.6 mph N/A   Overcast
8:53 AM 51.1 °F 39.9 °F 66% 29.91 in 10.0 mi SSW 15.0 mph 20.7 mph N/A   Overcast
9:53 AM 53.1 °F 42.1 °F 66% 29.91 in 10.0 mi SSW 12.7 mph 24.2 mph N/A   Overcast
10:53 AM 53.1 °F 43.0 °F 69% 29.92 in 10.0 mi SSW 15.0 mph 24.2 mph N/A   Overcast
11:53 AM 54.0 °F 45.0 °F 72% 29.90 in 10.0 mi SSW 13.8 mph 23.0 mph N/A   Overcast
12:53 PM 54.0 °F 48.0 °F 80% 29.87 in 10.0 mi SSW 13.8 mph 23.0 mph N/A   Overcast
1:21 PM 53.6 °F 48.2 °F 82% 29.85 in 7.0 mi SSW 15.0 mph 24.2 mph 0.00 in Rain Light Rain
1:53 PM 53.1 °F 48.9 °F 86% 29.85 in 10.0 mi SSW 15.0 mph 21.9 mph 0.00 in   Overcast
2:36 PM 51.8 °F 50.0 °F 94% 29.83 in 4.0 mi SSW 12.7 mph 23.0 mph 0.00 in   Overcast
2:53 PM 52.0 °F 51.1 °F 97% 29.83 in 4.0 mi SSW 13.8 mph - 0.00 in   Overcast
3:34 PM 53.6 °F 51.8 °F 94% 29.84 in 2.0 mi SSW 10.4 mph - N/A   Overcast
3:53 PM 53.1 °F 52.0 °F 96% 29.84 in 1.5 mi SSW 13.8 mph - N/A   Overcast
4:25 PM 53.6 °F 51.8 °F 94% 29.84 in 2.5 mi SSW 11.5 mph - N/A   Overcast
4:32 PM 53.6 °F 51.8 °F 94% 29.84 in 3.0 mi South 11.5 mph - N/A   Overcast
4:53 PM 53.1 °F 52.0 °F 96% 29.85 in 4.0 mi South 10.4 mph - N/A   Overcast
5:05 PM 53.6 °F 51.8 °F 94% 29.85 in 2.0 mi SSW 9.2 mph - N/A   Overcast
5:19 PM 53.6 °F 53.6 °F 100% 29.85 in 3.0 mi SSW 11.5 mph - N/A   Overcast
5:53 PM 54.0 °F 53.1 °F 97% 29.85 in 5.0 mi South 13.8 mph - N/A   Overcast
6:17 PM 55.4 °F 53.6 °F 94% 29.85 in 6.0 mi SSW 11.5 mph - N/A   Overcast
6:53 PM 55.9 °F 54.0 °F 93% 29.86 in 7.0 mi SSW 8.1 mph - 0.01 in   Overcast
7:53 PM 57.0 °F 54.0 °F 89% 29.85 in 10.0 mi South 12.7 mph - N/A   Overcast
8:53 PM 57.0 °F 55.0 °F 93% 29.85 in 10.0 mi South 13.8 mph - N/A   Overcast
9:53 PM 57.9 °F 55.0 °F 90% 29.83 in 10.0 mi South 12.7 mph - N/A   Overcast
10:53 PM 59.0 °F 55.9 °F 90% 29.82 in 10.0 mi South 13.8 mph 21.9 mph N/A   Overcast
11:53 PM 59.0 °F 55.9 °F 90% 29.81 in 10.0 mi South 13.8 mph 23.0 mph N/A   Overcast